Location: Asheville, NC
(35.6000°N, 82.5500°W)
Time: 23:39:11

STARS - Pass Details

Date: 16 March 2018
Orbit: 625 x 641 km, 98.3° (Epoch: 19 March)

Event Time Altitude Azimuth Distance (km) Brightness Sun altitude
Rises 06:05:59 0° 134° (SE) 2,930 ? -19.7°
Reaches altitude 10° 06:08:34 10° 119° (ESE) 2,025 ? -19.2°
Maximum altitude 06:11:57 22° 69° (ENE) 1,396 ? -18.5°
Drops below altitude 10° 06:15:20 10° 18° (NNE) 2,032 ? -17.9°
Sets 06:17:56 0° 4° (N) 2,943 ? -17.3°
